Overview Statistics Trail Chart Weather Telemetry Raw packets
 

This is the latest recevied weather packets stored in our database for station/object KA1JKB. If no packets are shown the sender has not sent any weather packets the latest 10 day(s).

<< 8 9 10 11 12 13 14 >>
Time Temp. Humidity Pressure Rain* Wind** Luminosity Snow
1788395160 26.67° C 87% 1010.9 hPa 0 mm - 0 W/m² -
1788394854 26.67° C 86% 1010.8 hPa 0 mm - 0 W/m² -
1788394549 27.22° C 85% 1010.7 hPa 0 mm - 0 W/m² -
1788394249 27.22° C 84% 1010.4 hPa 0 mm - 1 W/m² -
1788393944 27.78° C 83% 1010.6 hPa 0 mm - 3 W/m² -
1788393638 27.78° C 82% 1010.7 hPa 0 mm - 6 W/m² -
1788393337 28.33° C 82% 1010.6 hPa 0 mm - 8 W/m² -
1788393033 28.33° C 81% 1010.6 hPa 0 mm - 15 W/m² -
1788392732 28.89° C 80% 1010.6 hPa 0 mm - 19 W/m² -
1788392431 28.89° C 79% 1010.7 hPa 0 mm - 22 W/m² -
1788392126 29.44° C 77% 1010.7 hPa 0 mm - 23 W/m² -
1788391820 29.44° C 76% 1010.6 hPa 0 mm - 23 W/m² -
1788391520 30° C 75% 1010.8 hPa 0 mm - 24 W/m² -
1788391214 30.56° C 74% 1010.8 hPa 0 mm - 32 W/m² -
1788390909 30.56° C 72% 1010.7 hPa 0 mm - 47 W/m² -
1788390603 31.11° C 71% 1010.5 hPa 0 mm - 54 W/m² -
1788390303 31.67° C 71% 1010.7 hPa 0 mm - 54 W/m² -
1788390003 31.67° C 70% 1010.5 hPa 0 mm - 85 W/m² -
1788389698 32.22° C 68% 1010.7 hPa 0 mm - 64 W/m² -
1788389398 32.22° C 68% 1010.7 hPa 0 mm - 106 W/m² -
1788389097 32.22° C 68% 1010.6 hPa 0 mm - 123 W/m² -
1788388794 31.67° C 67% 1010.6 hPa 0 mm - 132 W/m² -
1788388489 32.22° C 67% 1010.6 hPa 0 mm - 140 W/m² -
1788388188 32.22° C 65% 1010.6 hPa 0 mm - 81 W/m² -
1788387887 32.22° C 65% 1010.5 hPa 0 mm - 182 W/m² -

* Rain latest hour (hover to see other rain measurements)
** Current wind speed in m/s (hover to see current wind gust speed)